Weather History for KY50 - October, 2011

Change the Weather History Date:

Tuesday, October 18, 2011

  Actual Average (KPCZ) Record (KPCZ)
Temperature  
Mean Temperature 42 °F -  
Max Temperature 52 °F 57 °F 86 °F (1950)
Min Temperature 32 °F 35 °F 18 °F (1948)
Degree Days  
Heating Degree Days 23    
Moisture  
Dew Point 33 °F    
Average Humidity 65    
Maximum Humidity 89    
Minimum Humidity 50    
Precipitation  
Precipitation 0.00 in - - ()
Sea Level Pressure  
Sea Level Pressure 29.87 in    
Wind  
Wind Speed 5 mph (NNW)    
Max Wind Speed 12 mph    
Max Gust Speed -    
Visibility 10 miles    
Events      
Averages and records for this station are not official NWS values.
T = Trace of Precipitation, MM = Missing Value Source: NWS Daily Summary

Daily Weather History Graph

Daily Weather History Graph

Search for Another Location

Airport or City:

Trip Planner

Search our weather history database for the weather conditions in past years. The results will help you decide how hot, cold, wet, or windy it might be!

Date:

Astronomy

Oct. 18, 2011 Rise Set
Actual Time 7:15 AM CDT 6:08 PM CDT
Civil Twilight 6:46 AM CDT 6:37 PM CDT
Nautical Twilight 6:12 AM CDT 7:11 PM CDT
Astronomical Twilight 5:39 AM CDT 7:44 PM CDT
Moon 10:42 PM CDT (10/18) 1:13 PM CDT (10/18)
Length of Visible Light 11h 51m
Length of Day
10h 53m
Waning Gibbous, 64% of the Moon is Illuminated
Oct 18
Waning Gibbous
Oct 19
Last Quarter
Oct 26
New
Nov 2
First Quarter
Nov 10
Full

Hourly Weather History & Observations

Time (CDT) Temp. Windchill Dew Point Humidity Pressure Visibility Wind Dir Wind Speed Gust Speed Precip Events Conditions
12:56 AM 41.0 °F 36.4 °F 28.0 °F 60% 29.79 in 10.0 mi WNW 6.9 mph - N/A   Clear
1:56 AM 39.9 °F 35.8 °F 28.0 °F 63% 29.78 in 10.0 mi NW 5.8 mph - N/A   Clear
2:56 AM 38.8 °F 34.6 °F 27.1 °F 63% 29.78 in 10.0 mi NW 5.8 mph - N/A   Clear
3:56 AM 36.9 °F - 27.1 °F 68% 29.79 in 10.0 mi Calm Calm - N/A   Clear
4:56 AM 32.9 °F - 27.1 °F 79% 29.81 in 10.0 mi Calm Calm - N/A   Clear
5:56 AM 32.9 °F - 30.0 °F 89% 29.83 in 10.0 mi Calm Calm - N/A   Overcast
6:56 AM 36.9 °F 33.1 °F 30.0 °F 76% 29.84 in 10.0 mi NNW 4.6 mph - N/A   Partly Cloudy
7:56 AM 38.8 °F 34.6 °F 32.0 °F 76% 29.85 in 10.0 mi North 5.8 mph - N/A   Clear
8:56 AM 43.9 °F 39.3 °F 34.0 °F 68% 29.86 in 10.0 mi North 8.1 mph - N/A   Clear
9:56 AM 45.9 °F 40.4 °F 34.0 °F 63% 29.88 in 10.0 mi NNW 11.5 mph - N/A   Scattered Clouds
10:38 AM 46.4 °F - 33.8 °F 62% 29.88 in 10.0 mi Calm Calm - N/A   Mostly Cloudy
11:12 AM 48.2 °F - 35.6 °F 62% 29.89 in 10.0 mi Variable 6.9 mph - N/A   Mostly Cloudy
11:24 AM 48.2 °F - 35.6 °F 62% 29.89 in 10.0 mi North 5.8 mph - N/A   Mostly Cloudy
11:56 AM 47.8 °F - 34.0 °F 59% 29.89 in 10.0 mi North 5.8 mph - N/A   Overcast
1:56 PM 50.9 °F - 34.0 °F 52% 29.86 in 10.0 mi Calm Calm - N/A   Mostly Cloudy
2:56 PM 52.0 °F - 34.0 °F 50% 29.86 in 10.0 mi North 5.8 mph - N/A   Overcast
3:56 PM 50.9 °F - 34.9 °F 54% 29.88 in 10.0 mi WNW 8.1 mph - N/A   Overcast
4:56 PM 50.0 °F - 36.0 °F 59% 29.89 in 10.0 mi West 5.8 mph - N/A   Overcast
6:56 PM 47.8 °F - 37.9 °F 69% 29.91 in 10.0 mi NW 8.1 mph - N/A   Overcast
7:56 PM 46.9 °F - 36.9 °F 68% 29.92 in 10.0 mi North 8.1 mph - N/A   Overcast
8:56 PM 46.9 °F - 36.9 °F 68% 29.93 in 10.0 mi NNW 6.9 mph - N/A   Overcast
9:56 PM 46.9 °F - 36.9 °F 68% 29.94 in 10.0 mi NNE 8.1 mph - 0.00 in   Overcast
10:56 PM 45.9 °F 42.3 °F 34.9 °F 66% 29.94 in 10.0 mi NNE 6.9 mph - N/A   Overcast
11:56 PM 45.0 °F 40.1 °F 34.0 °F 65% 29.95 in 10.0 mi NNE 9.2 mph - 0.00 in   Overcast